Regional Weather Roundup
Issued by NWS Spokane, WA

Home | Current Version | Previous Version | Text Only | Print | Product List | Glossary On
Versions: 1 2 3 4 5 6 7 8 9 10 11 12 13 14 15 16 17 18 19 20 21 22 23 24 25 26 27 28 29 30 31 32 33 34 35 36 37 38 39 40 41 42 43 44 45 46 47 48 49 50
000
NZUS01 KOTX 301410
RWROTX
EASTERN WASHINGTON/NORTHERN IDAHO ROUNDUP
NATIONAL WEATHER SERVICE, SPOKANE WA
700 AM PDT TUE SEP 30 2014

Note: "fair" indicated few or no clouds below 12,000 feet with no
significant weather and/or obstructions to visibility.

...NORTHEAST WASHINGTON AND NORTHERN IDAHO PANHANDLE...

CITY           SKY/WX    TMP DP  RH WIND       PRES   REMARKS
SPOKANE INTL   MOCLDY    48  41  76 SW14      29.84R
SPOKANE DOWNTO LGT RAIN  51  42  71 SW8       29.86R
COEUR D ALENE  CLOUDY    50  45  81 CALM      29.86R
DEER PARK      CLOUDY    48  45  89 SE8       29.84R
SANDPOINT      CLOUDY    52  52 100 SW3       29.79R

...SOUTHEAST WASHINGTON AND SOUTHERN IDAHO PANHANDLE...

CITY           SKY/WX    TMP DP  RH WIND       PRES   REMARKS
WALLA WALLA    CLOUDY    55  43  63 S12       29.99R
PULLMAN/MOSCOW PTCLDY    48  40  73 W13       29.93R
LEWISTON       CLOUDY    55  41  59 W8        29.92R
LOWELL           N/A     54  54 100 SW3       29.92R

...COLUMBIA BASIN...

CITY           SKY/WX    TMP DP  RH WIND       PRES   REMARKS
EPHRATA        CLEAR     58  35  42 W17       29.85R
MOSES LAKE     CLEAR     51  40  65 W9        29.89R
TRI CITIES     CLEAR     53  45  74 SW13      29.95R
HERMISTON      CLEAR     53  42  66 SW13      29.98R
PENDLETON      PTCLDY    54  40  59 W20       29.98R

...EAST SLOPES CASCADES...

CITY           SKY/WX    TMP DP  RH WIND       PRES   REMARKS
THE DALLES     CLEAR     59  45  59 W12G21    29.99R
YAKIMA         PTCLDY    48  38  68 E6        29.95R
ELLENSBURG     CLEAR     55  41  59 NW22G33   29.94R
WENATCHEE      CLEAR     53  37  54 VRB3      29.90R
OMAK           CLEAR     47  35  63 W5        29.85R

...SOUTHERN BRITISH COLUMBIA...

CITY           SKY/WX    TMP DP  RH WIND       PRES   REMARKS
PENTICTON      MOCLDY    55  39  54 W2        29.87R
CRANBROOK      PTCLDY    48  43  81 VRB2      29.72R

...WESTERN MONTANA...

CITY           SKY/WX    TMP DP  RH WIND       PRES   REMARKS
MISSOULA       LGT RAIN  50  50 100 NW3       29.82R

...NEIGHBORING CITIES...

CITY           SKY/WX    TMP DP  RH WIND       PRES   REMARKS
SEATTLE        CLOUDY    55  50  83 SW5       30.05R
CALGARY        CLOUDY    50  43  76 N20G28    29.67R



USA.gov is the U.S. government's official web portal to all federal, state and local government web resources and services.